アトラス彗星

P/2022 L3 ( ATLAS )

English version
Home page
Updated on November 26, 2022

---------------------------------------------------------------------

・ プロフィール

発見日 2022年6月12日
発見光度 17.6等
発見者 Asteroid Terrestrial-Impact Last Alert System (ATLAS) search program

・ 写真集

・ 軌道要素

Epoch 2022 Aug. 9.0 TT = JDT 2459800.5
T 2022 Oct. 29.96747 TT                                 Rudenko
q   2.4198315            (2000.0)            P               Q
n   0.05928020     Peri.   10.33232     +0.77072424     -0.61047523
a   6.5142276      Node    29.80532     +0.55526642     +0.50303886
e   0.6285313      Incl.   21.54004     +0.31251136     +0.61177765
P  16.6
>From 680 observations 2022 June 12-Nov. 10, mean residual 0".6.

・ 星図

・ 光度変化

        m1 = 10.5 + 5 logΔ + 10.0 log r

---------------------------------------------------------------------

軌道要素はM.P.E.C. 2022-V125に掲載されたものです。
星図はステラナビゲータ Ver.10 (アストロアーツ) で作成したものです。
光度グラフはComet for Windowsで作成したものです。

---------------------------------------------------------------------

Copyright(C) Seiichi Yoshida (comet@aerith.net). All rights reserved.